Location: Killam
(52.7910°N, 111.8608°W)
Time: 02:00:59
(UTC+00:00)

ISS - Pass Details

Date: 27 January 2026
Orbit: 413 x 428 km, 51.6° (Epoch: 13 February)

Event Time Altitude Azimuth Distance (km) Brightness Sun altitude
Rises 00:41:32 0° 277° (W) 2,361 1.2 -6.2°
Reaches altitude 10° 00:43:39 10° 273° (W) 1,499 0.3 -6.5°
Maximum altitude 00:46:57 57° 194° (SSW) 502 -3.1 -6.9°
Drops below altitude 10° 00:50:16 10° 116° (ESE) 1,504 -1.3 -7.4°
Enters shadow 00:51:40 - 113° (ESE) 2,071 -0.7 -7.6°
